Location: Asheville, NC
(35.6000°N, 82.5500°W)
Time: 05:29:28
(UTC-05:00)

ISS - Pass Details

Date: 10 February 2018
Orbit: 403 x 407 km, 51.6° (Epoch: 19 February)

Event Time Altitude Azimuth Distance (km) Brightness Sun altitude
Rises 18:52:53 0° 322° (NW) 2,315 0.4 -9.8°
Reaches altitude 10° 18:55:16 10° 339° (NNW) 1,454 -0.9 -10.3°
Maximum altitude 18:57:53 22° 32° (NNE) 939 -2.4 -10.8°
Enters shadow 18:59:14 17° 67° (ENE) 1,099 -2.3 -11.1°
